Year,Month,Day,Hour,Minute,Value (Times are PST for insolation in W/m^2)
2013,05,13,00,00,0.00
2013,05,13,00,01,0.00
2013,05,13,00,02,0.00
2013,05,13,00,03,0.00
2013,05,13,00,04,0.00
2013,05,13,00,05,0.00
2013,05,13,00,06,0.00
2013,05,13,00,07,0.00
2013,05,13,00,08,0.00
2013,05,13,00,09,0.00
2013,05,13,00,10,0.00
2013,05,13,00,11,0.00
2013,05,13,00,12,0.00
2013,05,13,00,13,0.00
2013,05,13,00,14,0.00
2013,05,13,00,15,0.00
2013,05,13,00,16,0.00
2013,05,13,00,17,0.00
2013,05,13,00,18,0.00
2013,05,13,00,19,0.00
2013,05,13,00,20,0.00
2013,05,13,00,21,0.00
2013,05,13,00,22,0.00
2013,05,13,00,23,0.00
2013,05,13,00,24,0.00
2013,05,13,00,25,0.00
2013,05,13,00,26,0.00
2013,05,13,00,27,0.00
2013,05,13,00,28,0.00
2013,05,13,00,29,0.00
2013,05,13,00,30,0.00
2013,05,13,00,31,0.00
2013,05,13,00,32,0.00
2013,05,13,00,33,0.00
2013,05,13,00,34,0.00
2013,05,13,00,35,0.00
2013,05,13,00,36,0.00
2013,05,13,00,37,0.00
2013,05,13,00,38,0.00
2013,05,13,00,39,0.00
2013,05,13,00,40,0.00
2013,05,13,00,41,0.00
2013,05,13,00,42,0.00
2013,05,13,00,43,0.00
2013,05,13,00,44,0.00
2013,05,13,00,45,0.00
2013,05,13,00,46,0.00
2013,05,13,00,47,0.00
2013,05,13,00,48,0.00
2013,05,13,00,49,0.00
2013,05,13,00,50,0.00
2013,05,13,00,51,0.00
2013,05,13,00,52,0.00
2013,05,13,00,53,0.00
2013,05,13,00,54,0.00
2013,05,13,00,55,0.00
2013,05,13,00,56,0.00
2013,05,13,00,57,0.00
2013,05,13,00,58,0.00
2013,05,13,00,59,0.00
2013,05,13,01,00,0.00
2013,05,13,01,01,0.00
2013,05,13,01,02,0.00
2013,05,13,01,03,0.00
2013,05,13,01,04,0.00
2013,05,13,01,05,0.00
2013,05,13,01,06,0.00
2013,05,13,01,07,0.00
2013,05,13,01,08,0.00
2013,05,13,01,09,0.00
2013,05,13,01,10,0.00
2013,05,13,01,11,0.00
2013,05,13,01,12,0.00
2013,05,13,01,13,0.00
2013,05,13,01,14,0.00
2013,05,13,01,15,0.00
2013,05,13,01,16,0.00
2013,05,13,01,17,0.00
2013,05,13,01,18,0.00
2013,05,13,01,19,0.00
2013,05,13,01,20,0.00
2013,05,13,01,21,0.00
2013,05,13,01,22,0.00
2013,05,13,01,23,0.00
2013,05,13,01,24,0.00
2013,05,13,01,25,0.00
2013,05,13,01,26,0.00
2013,05,13,01,27,0.00
2013,05,13,01,28,0.00
2013,05,13,01,29,0.00
2013,05,13,01,30,0.00
2013,05,13,01,31,0.00
2013,05,13,01,32,0.00
2013,05,13,01,33,0.00
2013,05,13,01,34,0.00
2013,05,13,01,35,0.00
2013,05,13,01,36,0.00
2013,05,13,01,37,0.00
2013,05,13,01,38,0.00
2013,05,13,01,39,0.00
2013,05,13,01,40,0.00
2013,05,13,01,41,0.00
2013,05,13,01,42,0.00
2013,05,13,01,43,0.00
2013,05,13,01,44,0.00
2013,05,13,01,45,0.00
2013,05,13,01,46,0.00
2013,05,13,01,47,0.00
2013,05,13,01,48,0.00
2013,05,13,01,49,0.00
2013,05,13,01,50,0.00
2013,05,13,01,51,0.00
2013,05,13,01,52,0.00
2013,05,13,01,53,0.00
2013,05,13,01,54,0.00
2013,05,13,01,55,0.00
2013,05,13,01,56,0.00
2013,05,13,01,57,0.00
2013,05,13,01,58,0.00
2013,05,13,01,59,0.00
2013,05,13,02,00,0.00
2013,05,13,02,01,0.00
2013,05,13,02,02,0.00
2013,05,13,02,03,0.00
2013,05,13,02,04,0.00
2013,05,13,02,05,0.00
2013,05,13,02,06,0.00
2013,05,13,02,07,0.00
2013,05,13,02,08,0.00
2013,05,13,02,09,0.00
2013,05,13,02,10,0.00
2013,05,13,02,11,0.00
2013,05,13,02,12,0.00
2013,05,13,02,13,0.00
2013,05,13,02,14,0.00
2013,05,13,02,15,0.00
2013,05,13,02,16,0.00
2013,05,13,02,17,0.00
2013,05,13,02,18,0.00
2013,05,13,02,19,0.00
2013,05,13,02,20,0.00
2013,05,13,02,21,0.00
2013,05,13,02,22,0.00
2013,05,13,02,23,0.00
2013,05,13,02,24,0.00
2013,05,13,02,25,0.00
2013,05,13,02,26,0.00
2013,05,13,02,27,0.00
2013,05,13,02,28,0.00
2013,05,13,02,29,0.00
2013,05,13,02,30,0.00
2013,05,13,02,31,0.00
2013,05,13,02,32,0.00
2013,05,13,02,33,0.00
2013,05,13,02,34,0.00
2013,05,13,02,35,0.00
2013,05,13,02,36,0.00
2013,05,13,02,37,0.00
2013,05,13,02,38,0.00
2013,05,13,02,39,0.00
2013,05,13,02,40,0.00
2013,05,13,02,41,0.00
2013,05,13,02,42,0.00
2013,05,13,02,43,0.00
2013,05,13,02,44,0.00
2013,05,13,02,45,0.00
2013,05,13,02,46,0.00
2013,05,13,02,47,0.00
2013,05,13,02,48,0.00
2013,05,13,02,49,0.00
2013,05,13,02,50,0.00
2013,05,13,02,51,0.00
2013,05,13,02,52,0.00
2013,05,13,02,53,0.00
2013,05,13,02,54,0.00
2013,05,13,02,55,0.00
2013,05,13,02,56,0.00
2013,05,13,02,57,0.00
2013,05,13,02,58,0.00
2013,05,13,02,59,0.00
2013,05,13,03,00,0.00
2013,05,13,03,01,0.00
2013,05,13,03,02,0.00
2013,05,13,03,03,0.00
2013,05,13,03,04,0.00
2013,05,13,03,05,0.00
2013,05,13,03,06,0.00
2013,05,13,03,07,0.00
2013,05,13,03,08,0.00
2013,05,13,03,09,0.00
2013,05,13,03,10,0.00
2013,05,13,03,11,0.00
2013,05,13,03,12,0.00
2013,05,13,03,13,0.00
2013,05,13,03,14,0.00
2013,05,13,03,15,0.00
2013,05,13,03,16,0.00
2013,05,13,03,17,0.00
2013,05,13,03,18,0.00
2013,05,13,03,19,0.00
2013,05,13,03,20,0.00
2013,05,13,03,21,0.00
2013,05,13,03,22,0.00
2013,05,13,03,23,0.00
2013,05,13,03,24,0.00
2013,05,13,03,25,0.00
2013,05,13,03,26,0.00
2013,05,13,03,27,0.00
2013,05,13,03,28,0.00
2013,05,13,03,29,0.00
2013,05,13,03,30,0.00
2013,05,13,03,31,0.00
2013,05,13,03,32,0.00
2013,05,13,03,33,0.00
2013,05,13,03,34,0.00
2013,05,13,03,35,0.00
2013,05,13,03,36,0.00
2013,05,13,03,37,0.00
2013,05,13,03,38,0.00
2013,05,13,03,39,0.00
2013,05,13,03,40,0.00
2013,05,13,03,41,0.00
2013,05,13,03,42,0.00
2013,05,13,03,43,0.00
2013,05,13,03,44,0.00
2013,05,13,03,45,0.00
2013,05,13,03,46,0.00
2013,05,13,03,47,0.00
2013,05,13,03,48,0.00
2013,05,13,03,49,0.00
2013,05,13,03,50,0.00
2013,05,13,03,51,0.00
2013,05,13,03,52,0.00
2013,05,13,03,53,0.00
2013,05,13,03,54,0.00
2013,05,13,03,55,0.00
2013,05,13,03,56,0.00
2013,05,13,03,57,0.00
2013,05,13,03,58,0.00
2013,05,13,03,59,0.00
2013,05,13,04,00,0.00
2013,05,13,04,01,0.00
2013,05,13,04,02,0.00
2013,05,13,04,03,0.00
2013,05,13,04,04,0.00
2013,05,13,04,05,0.00
2013,05,13,04,06,0.00
2013,05,13,04,07,0.00
2013,05,13,04,08,0.00
2013,05,13,04,09,0.00
2013,05,13,04,10,0.00
2013,05,13,04,11,0.00
2013,05,13,04,12,0.00
2013,05,13,04,13,0.00
2013,05,13,04,14,0.00
2013,05,13,04,15,0.00
2013,05,13,04,16,0.00
2013,05,13,04,17,0.00
2013,05,13,04,18,0.00
2013,05,13,04,19,0.00
2013,05,13,04,20,0.00
2013,05,13,04,21,0.00
2013,05,13,04,22,0.00
2013,05,13,04,23,0.00
2013,05,13,04,24,0.00
2013,05,13,04,25,0.00
2013,05,13,04,26,0.00
2013,05,13,04,27,0.00
2013,05,13,04,28,0.00
2013,05,13,04,29,0.00
2013,05,13,04,30,0.00
2013,05,13,04,31,0.00
2013,05,13,04,32,0.00
2013,05,13,04,33,0.00
2013,05,13,04,34,0.00
2013,05,13,04,35,0.00
2013,05,13,04,36,0.00
2013,05,13,04,37,0.00
2013,05,13,04,38,0.00
2013,05,13,04,39,0.00
2013,05,13,04,40,0.00
2013,05,13,04,41,0.00
2013,05,13,04,42,0.00
2013,05,13,04,43,0.00
2013,05,13,04,44,0.00
2013,05,13,04,45,0.00
2013,05,13,04,46,0.00
2013,05,13,04,47,0.00
2013,05,13,04,48,0.00
2013,05,13,04,49,0.00
2013,05,13,04,50,0.00
2013,05,13,04,51,0.00
2013,05,13,04,52,0.00
2013,05,13,04,53,0.00
2013,05,13,04,54,0.00
2013,05,13,04,55,0.00
2013,05,13,04,56,0.00
2013,05,13,04,57,0.00
2013,05,13,04,58,0.00
2013,05,13,04,59,0.00
2013,05,13,05,00,0.00
2013,05,13,05,01,0.00
2013,05,13,05,02,0.00
2013,05,13,05,03,0.00
2013,05,13,05,04,0.00
2013,05,13,05,05,0.00
2013,05,13,05,06,0.00
2013,05,13,05,07,0.00
2013,05,13,05,08,0.00
2013,05,13,05,09,0.00
2013,05,13,05,10,0.00
2013,05,13,05,11,0.00
2013,05,13,05,12,0.00
2013,05,13,05,13,0.00
2013,05,13,05,14,0.00
2013,05,13,05,15,0.00
2013,05,13,05,16,0.00
2013,05,13,05,17,0.00
2013,05,13,05,18,0.00
2013,05,13,05,19,0.00
2013,05,13,05,20,0.00
2013,05,13,05,21,0.00
2013,05,13,05,22,0.00
2013,05,13,05,23,0.00
2013,05,13,05,24,0.00
2013,05,13,05,25,0.00
2013,05,13,05,26,0.00
2013,05,13,05,27,0.00
2013,05,13,05,28,0.00
2013,05,13,05,29,0.00
2013,05,13,05,30,0.00
2013,05,13,05,31,0.00
2013,05,13,05,32,0.00
2013,05,13,05,33,0.00
2013,05,13,05,34,0.00
2013,05,13,05,35,0.00
2013,05,13,05,36,0.00
2013,05,13,05,37,0.00
2013,05,13,05,38,0.00
2013,05,13,05,39,0.00
2013,05,13,05,40,0.00
2013,05,13,05,41,0.00
2013,05,13,05,42,0.00
2013,05,13,05,43,2.80
2013,05,13,05,44,5.00
2013,05,13,05,45,5.00
2013,05,13,05,46,5.00
2013,05,13,05,47,5.10
2013,05,13,05,48,7.00
2013,05,13,05,49,7.00
2013,05,13,05,50,7.00
2013,05,13,05,51,7.00
2013,05,13,05,52,8.20
2013,05,13,05,53,9.00
2013,05,13,05,54,9.00
2013,05,13,05,55,10.80
2013,05,13,05,56,11.00
2013,05,13,05,57,11.20
2013,05,13,05,58,12.00
2013,05,13,05,59,12.00
2013,05,13,06,00,12.00
2013,05,13,06,01,12.00
2013,05,13,06,02,13.50
2013,05,13,06,03,14.00
2013,05,13,06,04,14.10
2013,05,13,06,05,16.00
2013,05,13,06,06,16.00
2013,05,13,06,07,16.70
2013,05,13,06,08,18.00
2013,05,13,06,09,18.60
2013,05,13,06,10,19.00
2013,05,13,06,11,20.50
2013,05,13,06,12,22.70
2013,05,13,06,13,25.10
2013,05,13,06,14,26.00
2013,05,13,06,15,26.60
2013,05,13,06,16,28.00
2013,05,13,06,17,28.90
2013,05,13,06,18,31.10
2013,05,13,06,19,32.00
2013,05,13,06,20,32.00
2013,05,13,06,21,32.00
2013,05,13,06,22,33.00
2013,05,13,06,23,33.00
2013,05,13,06,24,33.70
2013,05,13,06,25,35.00
2013,05,13,06,26,36.10
2013,05,13,06,27,37.00
2013,05,13,06,28,38.50
2013,05,13,06,29,39.00
2013,05,13,06,30,40.00
2013,05,13,06,31,42.30
2013,05,13,06,32,44.00
2013,05,13,06,33,44.70
2013,05,13,06,34,46.00
2013,05,13,06,35,46.60
2013,05,13,06,36,47.00
2013,05,13,06,37,47.00
2013,05,13,06,38,48.80
2013,05,13,06,39,49.20
2013,05,13,06,40,50.60
2013,05,13,06,41,49.00
2013,05,13,06,42,48.20
2013,05,13,06,43,47.00
2013,05,13,06,44,47.00
2013,05,13,06,45,48.40
2013,05,13,06,46,50.70
2013,05,13,06,47,52.90
2013,05,13,06,48,53.20
2013,05,13,06,49,54.00
2013,05,13,06,50,54.70
2013,05,13,06,51,56.90
2013,05,13,06,52,59.20
2013,05,13,06,53,61.40
2013,05,13,06,54,62.00
2013,05,13,06,55,62.80
2013,05,13,06,56,63.10
2013,05,13,06,57,65.00
2013,05,13,06,58,65.50
2013,05,13,06,59,67.70
2013,05,13,07,00,70.50
2013,05,13,07,01,74.40
2013,05,13,07,02,76.70
2013,05,13,07,03,77.00
2013,05,13,07,04,78.80
2013,05,13,07,05,79.00
2013,05,13,07,06,79.40
2013,05,13,07,07,81.70
2013,05,13,07,08,83.40
2013,05,13,07,09,86.20
2013,05,13,07,10,89.30
2013,05,13,07,11,90.00
2013,05,13,07,12,90.80
2013,05,13,07,13,89.90
2013,05,13,07,14,85.80
2013,05,13,07,15,83.70
2013,05,13,07,16,82.20
2013,05,13,07,17,81.00
2013,05,13,07,18,79.80
2013,05,13,07,19,80.40
2013,05,13,07,20,81.00
2013,05,13,07,21,81.00
2013,05,13,07,22,80.80
2013,05,13,07,23,76.80
2013,05,13,07,24,74.90
2013,05,13,07,25,70.70
2013,05,13,07,26,67.90
2013,05,13,07,27,65.80
2013,05,13,07,28,63.60
2013,05,13,07,29,60.50
2013,05,13,07,30,58.10
2013,05,13,07,31,53.50
2013,05,13,07,32,50.60
2013,05,13,07,33,48.00
2013,05,13,07,34,46.00
2013,05,13,07,35,46.00
2013,05,13,07,36,44.70
2013,05,13,07,37,44.00
2013,05,13,07,38,46.70
2013,05,13,07,39,51.10
2013,05,13,07,40,55.60
2013,05,13,07,41,62.90
2013,05,13,07,42,66.50
2013,05,13,07,43,70.50
2013,05,13,07,44,74.40
2013,05,13,07,45,79.40
2013,05,13,07,46,82.60
2013,05,13,07,47,85.70
2013,05,13,07,48,91.40
2013,05,13,07,49,97.20
2013,05,13,07,50,106.40
2013,05,13,07,51,111.80
2013,05,13,07,52,121.50
2013,05,13,07,53,131.30
2013,05,13,07,54,138.60
2013,05,13,07,55,137.80
2013,05,13,07,56,153.90
2013,05,13,07,57,150.60
2013,05,13,07,58,149.00
2013,05,13,07,59,147.90
2013,05,13,08,00,150.70
2013,05,13,08,01,149.40
2013,05,13,08,02,153.80
2013,05,13,08,03,146.80
2013,05,13,08,04,152.10
2013,05,13,08,05,138.00
2013,05,13,08,06,162.00
2013,05,13,08,07,151.70
2013,05,13,08,08,157.10
2013,05,13,08,09,158.00
2013,05,13,08,10,160.40
2013,05,13,08,11,136.80
2013,05,13,08,12,126.00
2013,05,13,08,13,127.70
2013,05,13,08,14,121.10
2013,05,13,08,15,136.00
2013,05,13,08,16,177.70
2013,05,13,08,17,224.10
2013,05,13,08,18,241.20
2013,05,13,08,19,240.10
2013,05,13,08,20,236.20
2013,05,13,08,21,230.60
2013,05,13,08,22,221.20
2013,05,13,08,23,216.00
2013,05,13,08,24,215.20
2013,05,13,08,25,213.40
2013,05,13,08,26,209.00
2013,05,13,08,27,199.90
2013,05,13,08,28,192.10
2013,05,13,08,29,194.00
2013,05,13,08,30,199.50
2013,05,13,08,31,200.60
2013,05,13,08,32,207.60
2013,05,13,08,33,214.70
2013,05,13,08,34,213.10
2013,05,13,08,35,206.50
2013,05,13,08,36,192.30
2013,05,13,08,37,180.10
2013,05,13,08,38,187.70
2013,05,13,08,39,207.40
2013,05,13,08,40,234.10
2013,05,13,08,41,245.20
2013,05,13,08,42,243.00
2013,05,13,08,43,246.60
2013,05,13,08,44,258.70
2013,05,13,08,45,291.60
2013,05,13,08,46,306.00
2013,05,13,08,47,343.60
2013,05,13,08,48,341.00
2013,05,13,08,49,388.40
2013,05,13,08,50,410.00
2013,05,13,08,51,471.60
2013,05,13,08,52,547.00
2013,05,13,08,53,661.00
2013,05,13,08,54,695.00
2013,05,13,08,55,677.00
2013,05,13,08,56,677.00
2013,05,13,08,57,710.70
2013,05,13,08,58,648.60
2013,05,13,08,59,636.00
2013,05,13,09,00,622.10
2013,05,13,09,01,603.00
2013,05,13,09,02,395.00
2013,05,13,09,03,306.50
2013,05,13,09,04,309.00
2013,05,13,09,05,309.50
2013,05,13,09,06,318.30
2013,05,13,09,07,318.80
2013,05,13,09,08,337.30
2013,05,13,09,09,311.50
2013,05,13,09,10,304.40
2013,05,13,09,11,329.90
2013,05,13,09,12,341.00
2013,05,13,09,13,341.00
2013,05,13,09,14,352.30
2013,05,13,09,15,453.00
2013,05,13,09,16,442.20
2013,05,13,09,17,423.30
2013,05,13,09,18,460.60
2013,05,13,09,19,482.70
2013,05,13,09,20,519.10
2013,05,13,09,21,563.60
2013,05,13,09,22,511.20
2013,05,13,09,23,516.70
2013,05,13,09,24,564.20
2013,05,13,09,25,576.40
2013,05,13,09,26,590.30
2013,05,13,09,27,595.60
2013,05,13,09,28,604.80
2013,05,13,09,29,618.50
2013,05,13,09,30,639.90
2013,05,13,09,31,671.20
2013,05,13,09,32,708.40
2013,05,13,09,33,752.50
2013,05,13,09,34,791.80
2013,05,13,09,35,810.00
2013,05,13,09,36,810.00
2013,05,13,09,37,810.00
2013,05,13,09,38,810.00
2013,05,13,09,39,573.30
2013,05,13,09,40,547.00
2013,05,13,09,41,543.00
2013,05,13,09,42,543.60
2013,05,13,09,43,593.50
2013,05,13,09,44,669.90
2013,05,13,09,45,698.70
2013,05,13,09,46,629.40
2013,05,13,09,47,565.40
2013,05,13,09,48,569.40
2013,05,13,09,49,805.00
2013,05,13,09,50,744.50
2013,05,13,09,51,575.00
2013,05,13,09,52,631.70
2013,05,13,09,53,673.00
2013,05,13,09,54,692.00
2013,05,13,09,55,710.00
2013,05,13,09,56,585.50
2013,05,13,09,57,620.80
2013,05,13,09,58,550.20
2013,05,13,09,59,550.30
2013,05,13,10,00,563.20
2013,05,13,10,01,537.50
2013,05,13,10,02,473.20
2013,05,13,10,03,448.00
2013,05,13,10,04,434.40
2013,05,13,10,05,402.20
2013,05,13,10,06,423.50
2013,05,13,10,07,401.90
2013,05,13,10,08,394.60
2013,05,13,10,09,397.00
2013,05,13,10,10,423.80
2013,05,13,10,11,436.90
2013,05,13,10,12,419.20
2013,05,13,10,13,364.00
2013,05,13,10,14,356.00
2013,05,13,10,15,379.20
2013,05,13,10,16,393.20
2013,05,13,10,17,398.90
2013,05,13,10,18,391.50
2013,05,13,10,19,385.00
2013,05,13,10,20,430.70
2013,05,13,10,21,490.00
2013,05,13,10,22,504.90
2013,05,13,10,23,572.90
2013,05,13,10,24,478.80
2013,05,13,10,25,447.30
2013,05,13,10,26,509.40
2013,05,13,10,27,546.80
2013,05,13,10,28,527.20
2013,05,13,10,29,483.50
2013,05,13,10,30,474.70
2013,05,13,10,31,444.10
2013,05,13,10,32,429.00
2013,05,13,10,33,414.40
2013,05,13,10,34,402.00
2013,05,13,10,35,390.80
2013,05,13,10,36,383.90
2013,05,13,10,37,379.80
2013,05,13,10,38,390.20
2013,05,13,10,39,404.70
2013,05,13,10,40,397.00
2013,05,13,10,41,396.80
2013,05,13,10,42,390.40
2013,05,13,10,43,374.10
2013,05,13,10,44,365.40
2013,05,13,10,45,365.80
2013,05,13,10,46,361.80
2013,05,13,10,47,354.40
2013,05,13,10,48,371.90
2013,05,13,10,49,356.90
2013,05,13,10,50,343.50
2013,05,13,10,51,339.00
2013,05,13,10,52,350.20
2013,05,13,10,53,381.60
2013,05,13,10,54,412.90
2013,05,13,10,55,422.00
2013,05,13,10,56,463.20
2013,05,13,10,57,537.40
2013,05,13,10,58,519.80
2013,05,13,10,59,505.90
2013,05,13,11,00,485.40
2013,05,13,11,01,429.50
2013,05,13,11,02,415.20
2013,05,13,11,03,462.60
2013,05,13,11,04,435.70
2013,05,13,11,05,412.30
2013,05,13,11,06,428.50
2013,05,13,11,07,435.80
2013,05,13,11,08,448.20
2013,05,13,11,09,398.40
2013,05,13,11,10,396.80
2013,05,13,11,11,413.10
2013,05,13,11,12,439.00
2013,05,13,11,13,434.00
2013,05,13,11,14,449.40
2013,05,13,11,15,363.40
2013,05,13,11,16,344.30
2013,05,13,11,17,316.10
2013,05,13,11,18,315.50
2013,05,13,11,19,336.90
2013,05,13,11,20,345.90
2013,05,13,11,21,369.50
2013,05,13,11,22,388.60
2013,05,13,11,23,407.30
2013,05,13,11,24,406.20
2013,05,13,11,25,437.50
2013,05,13,11,26,450.20
2013,05,13,11,27,458.00
2013,05,13,11,28,478.20
2013,05,13,11,29,480.20
2013,05,13,11,30,526.80
2013,05,13,11,31,447.20
2013,05,13,11,32,440.50
2013,05,13,11,33,501.60
2013,05,13,11,34,531.50
2013,05,13,11,35,529.00
2013,05,13,11,36,603.20
2013,05,13,11,37,664.00
2013,05,13,11,38,589.00
2013,05,13,11,39,501.00
2013,05,13,11,40,505.30
2013,05,13,11,41,433.20
2013,05,13,11,42,416.90
2013,05,13,11,43,405.20
2013,05,13,11,44,399.30
2013,05,13,11,45,388.40
2013,05,13,11,46,376.90
2013,05,13,11,47,368.40
2013,05,13,11,48,371.00
2013,05,13,11,49,378.30
2013,05,13,11,50,382.00
2013,05,13,11,51,385.00
2013,05,13,11,52,385.00
2013,05,13,11,53,377.60
2013,05,13,11,54,356.00
2013,05,13,11,55,329.80
2013,05,13,11,56,298.20
2013,05,13,11,57,292.30
2013,05,13,11,58,259.60
2013,05,13,11,59,258.50
2013,05,13,12,00,260.80
2013,05,13,12,01,261.10
2013,05,13,12,02,255.90
2013,05,13,12,03,246.70
2013,05,13,12,04,240.10
2013,05,13,12,05,236.40
2013,05,13,12,06,236.00
2013,05,13,12,07,236.60
2013,05,13,12,08,242.70
2013,05,13,12,09,255.10
2013,05,13,12,10,264.50
2013,05,13,12,11,268.20
2013,05,13,12,12,267.50
2013,05,13,12,13,264.60
2013,05,13,12,14,264.70
2013,05,13,12,15,281.80
2013,05,13,12,16,309.00
2013,05,13,12,17,337.70
2013,05,13,12,18,357.10
2013,05,13,12,19,357.10
2013,05,13,12,20,333.50
2013,05,13,12,21,314.50
2013,05,13,12,22,312.70
2013,05,13,12,23,322.30
2013,05,13,12,24,323.60
2013,05,13,12,25,311.80
2013,05,13,12,26,298.30
2013,05,13,12,27,293.00
2013,05,13,12,28,301.60
2013,05,13,12,29,320.70
2013,05,13,12,30,349.40
2013,05,13,12,31,423.40
2013,05,13,12,32,399.20
2013,05,13,12,33,415.60
2013,05,13,12,34,383.20
2013,05,13,12,35,290.00
2013,05,13,12,36,208.00
2013,05,13,12,37,182.30
2013,05,13,12,38,207.80
2013,05,13,12,39,233.90
2013,05,13,12,40,248.00
2013,05,13,12,41,247.20
2013,05,13,12,42,241.90
2013,05,13,12,43,228.00
2013,05,13,12,44,206.60
2013,05,13,12,45,182.40
2013,05,13,12,46,166.50
2013,05,13,12,47,157.00
2013,05,13,12,48,149.00
2013,05,13,12,49,141.70
2013,05,13,12,50,139.00
2013,05,13,12,51,138.40
2013,05,13,12,52,135.70
2013,05,13,12,53,132.00
2013,05,13,12,54,128.80
2013,05,13,12,55,128.00
2013,05,13,12,56,127.20
2013,05,13,12,57,123.40
2013,05,13,12,58,116.70
2013,05,13,12,59,106.60
2013,05,13,13,00,96.50
2013,05,13,13,01,85.90
2013,05,13,13,02,78.10
2013,05,13,13,03,74.70
2013,05,13,13,04,75.60
2013,05,13,13,05,81.90
2013,05,13,13,06,92.90
2013,05,13,13,07,103.00
2013,05,13,13,08,108.80
2013,05,13,13,09,115.00
2013,05,13,13,10,120.40
2013,05,13,13,11,125.50
2013,05,13,13,12,129.10
2013,05,13,13,13,135.60
2013,05,13,13,14,145.10
2013,05,13,13,15,163.40
2013,05,13,13,16,176.60
2013,05,13,13,17,178.10
2013,05,13,13,18,171.10
2013,05,13,13,19,158.40
2013,05,13,13,20,145.60
2013,05,13,13,21,132.30
2013,05,13,13,22,121.50
2013,05,13,13,23,111.30
2013,05,13,13,24,106.60
2013,05,13,13,25,105.00
2013,05,13,13,26,105.00
2013,05,13,13,27,105.00
2013,05,13,13,28,106.20
2013,05,13,13,29,111.10
2013,05,13,13,30,122.60
2013,05,13,13,31,139.40
2013,05,13,13,32,172.00
2013,05,13,13,33,203.40
2013,05,13,13,34,223.00
2013,05,13,13,35,229.10
2013,05,13,13,36,232.00
2013,05,13,13,37,226.10
2013,05,13,13,38,214.20
2013,05,13,13,39,205.30
2013,05,13,13,40,199.20
2013,05,13,13,41,190.90
2013,05,13,13,42,177.70
2013,05,13,13,43,162.80
2013,05,13,13,44,147.60
2013,05,13,13,45,138.00
2013,05,13,13,46,135.00
2013,05,13,13,47,139.80
2013,05,13,13,48,141.90
2013,05,13,13,49,138.70
2013,05,13,13,50,132.90
2013,05,13,13,51,125.90
2013,05,13,13,52,117.30
2013,05,13,13,53,108.00
2013,05,13,13,54,104.40
2013,05,13,13,55,102.60
2013,05,13,13,56,98.00
2013,05,13,13,57,93.40
2013,05,13,13,58,87.20
2013,05,13,13,59,81.80
2013,05,13,14,00,75.90
2013,05,13,14,01,73.10
2013,05,13,14,02,72.00
2013,05,13,14,03,74.50
2013,05,13,14,04,82.30
2013,05,13,14,05,99.40
2013,05,13,14,06,125.20
2013,05,13,14,07,158.70
2013,05,13,14,08,190.90
2013,05,13,14,09,223.90
2013,05,13,14,10,256.60
2013,05,13,14,11,281.90
2013,05,13,14,12,297.10
2013,05,13,14,13,310.00
2013,05,13,14,14,320.60
2013,05,13,14,15,311.10
2013,05,13,14,16,287.20
2013,05,13,14,17,258.20
2013,05,13,14,18,229.50
2013,05,13,14,19,212.50
2013,05,13,14,20,227.90
2013,05,13,14,21,276.90
2013,05,13,14,22,347.50
2013,05,13,14,23,388.40
2013,05,13,14,24,445.40
2013,05,13,14,25,527.00
2013,05,13,14,26,552.90
2013,05,13,14,27,579.80
2013,05,13,14,28,539.50
2013,05,13,14,29,507.50
2013,05,13,14,30,496.00
2013,05,13,14,31,1006.90
2013,05,13,14,32,1067.00
2013,05,13,14,33,908.40
2013,05,13,14,34,267.70
2013,05,13,14,35,251.00
2013,05,13,14,36,248.00
2013,05,13,14,37,259.40
2013,05,13,14,38,267.00
2013,05,13,14,39,428.50
2013,05,13,14,40,443.10
2013,05,13,14,41,430.50
2013,05,13,14,42,416.70
2013,05,13,14,43,397.70
2013,05,13,14,44,401.20
2013,05,13,14,45,397.10
2013,05,13,14,46,362.10
2013,05,13,14,47,325.00
2013,05,13,14,48,319.70
2013,05,13,14,49,340.10
2013,05,13,14,50,377.40
2013,05,13,14,51,358.30
2013,05,13,14,52,343.10
2013,05,13,14,53,344.50
2013,05,13,14,54,397.30
2013,05,13,14,55,429.00
2013,05,13,14,56,429.00
2013,05,13,14,57,429.00
2013,05,13,14,58,429.00
2013,05,13,14,59,407.20
2013,05,13,15,00,316.70
2013,05,13,15,01,299.70
2013,05,13,15,02,297.50
2013,05,13,15,03,308.00
2013,05,13,15,04,362.00
2013,05,13,15,05,355.70
2013,05,13,15,06,350.00
2013,05,13,15,07,590.60
2013,05,13,15,08,543.00
2013,05,13,15,09,521.00
2013,05,13,15,10,480.00
2013,05,13,15,11,417.90
2013,05,13,15,12,367.00
2013,05,13,15,13,479.50
2013,05,13,15,14,539.10
2013,05,13,15,15,543.00
2013,05,13,15,16,628.20
2013,05,13,15,17,969.00
2013,05,13,15,18,969.00
2013,05,13,15,19,969.00
2013,05,13,15,20,969.00
2013,05,13,15,21,969.00
2013,05,13,15,22,685.10
2013,05,13,15,23,635.00
2013,05,13,15,24,611.00
2013,05,13,15,25,475.00
2013,05,13,15,26,475.00
2013,05,13,15,27,600.60
2013,05,13,15,28,768.00
2013,05,13,15,29,611.30
2013,05,13,15,30,561.50
2013,05,13,15,31,573.00
2013,05,13,15,32,379.00
2013,05,13,15,33,350.00
2013,05,13,15,34,288.70
2013,05,13,15,35,266.00
2013,05,13,15,36,245.60
2013,05,13,15,37,237.90
2013,05,13,15,38,231.80
2013,05,13,15,39,222.90
2013,05,13,15,40,240.70
2013,05,13,15,41,248.40
2013,05,13,15,42,230.20
2013,05,13,15,43,213.30
2013,05,13,15,44,203.80
2013,05,13,15,45,198.00
2013,05,13,15,46,204.20
2013,05,13,15,47,225.10
2013,05,13,15,48,241.60
2013,05,13,15,49,245.90
2013,05,13,15,50,252.10
2013,05,13,15,51,264.80
2013,05,13,15,52,261.30
2013,05,13,15,53,251.40
2013,05,13,15,54,277.20
2013,05,13,15,55,330.10
2013,05,13,15,56,316.50
2013,05,13,15,57,277.20
2013,05,13,15,58,234.60
2013,05,13,15,59,200.00
2013,05,13,16,00,171.10
2013,05,13,16,01,169.00
2013,05,13,16,02,151.50
2013,05,13,16,03,122.90
2013,05,13,16,04,109.70
2013,05,13,16,05,98.90
2013,05,13,16,06,97.00
2013,05,13,16,07,95.30
2013,05,13,16,08,83.80
2013,05,13,16,09,75.20
2013,05,13,16,10,73.80
2013,05,13,16,11,80.40
2013,05,13,16,12,89.80
2013,05,13,16,13,99.30
2013,05,13,16,14,104.60
2013,05,13,16,15,111.10
2013,05,13,16,16,119.00
2013,05,13,16,17,123.00
2013,05,13,16,18,123.70
2013,05,13,16,19,126.30
2013,05,13,16,20,131.60
2013,05,13,16,21,127.80
2013,05,13,16,22,132.20
2013,05,13,16,23,141.20
2013,05,13,16,24,133.50
2013,05,13,16,25,118.60
2013,05,13,16,26,115.30
2013,05,13,16,27,121.20
2013,05,13,16,28,125.00
2013,05,13,16,29,127.60
2013,05,13,16,30,132.30
2013,05,13,16,31,140.80
2013,05,13,16,32,154.50
2013,05,13,16,33,172.60
2013,05,13,16,34,183.20
2013,05,13,16,35,193.80
2013,05,13,16,36,208.00
2013,05,13,16,37,225.90
2013,05,13,16,38,248.90
2013,05,13,16,39,285.50
2013,05,13,16,40,334.10
2013,05,13,16,41,363.30
2013,05,13,16,42,410.00
2013,05,13,16,43,435.50
2013,05,13,16,44,451.60
2013,05,13,16,45,492.50
2013,05,13,16,46,513.00
2013,05,13,16,47,557.00
2013,05,13,16,48,591.80
2013,05,13,16,49,613.80
2013,05,13,16,50,664.00
2013,05,13,16,51,673.20
2013,05,13,16,52,699.30
2013,05,13,16,53,679.90
2013,05,13,16,54,610.20
2013,05,13,16,55,572.00
2013,05,13,16,56,510.20
2013,05,13,16,57,571.30
2013,05,13,16,58,585.00
2013,05,13,16,59,585.00
2013,05,13,17,00,488.90
2013,05,13,17,01,205.10
2013,05,13,17,02,181.00
2013,05,13,17,03,181.00
2013,05,13,17,04,181.00
2013,05,13,17,05,420.20
2013,05,13,17,06,521.70
2013,05,13,17,07,482.00
2013,05,13,17,08,482.00
2013,05,13,17,09,482.00
2013,05,13,17,10,482.00
2013,05,13,17,11,539.00